STARLINK-30233, 57302

Orbit data source: Space-Track

STARLINK-30233, 57302 is a payload satellite owned by SpaceX/Seattle (US) in LEO that was launched on Mon, 10 Jul 2023 UTC via an FALCON 9 launch vehicle from the Air Force Eastern Test Range (AFETR). Payload-class satellites include a variety of spacecraft equipped with specific instruments for various scientific and technological missions. These include communications satellites like Starlink; space stations such as the ISS; scientific satellites like the Hubble; Earth observation satellites from companies like Planet Labs, Umbra, and HawkEye 360; GPS; miniature CubeSats for education and research; and military/defense satellites.

Loading next visibility...
Identifier
57302, 2023-096N
Orbit
LEO
Country
Flag of USUS
Related business
Manufacturer
SpaceX/Seattle
Mission
Operational Commercial Communications
Bus & Motor
STARLINK V2M, Unknown motor
Mass
730 kg wet, ~700 kg dry
Launch date (UTC)
2023-07-10 (2 years ago)
Launch vehicle
FALCON 9
Launch site
Air Force Eastern Test Range (AFETR)
Object type
Payload
Rocket body
Debris
Shape & HBR
Box + 2 Pan, 14.5 m
Radar Cross Section
33.884 m², Large (>1 m²)

Expand to show TLE details & history
Last TLE update: 1 day ago

TLE from 1 day ago
0 STARLINK-30233
1 57302U 23096N   25241.00820688  .00002994  00000-0  23646-3 0  9991
2 57302  43.0011 190.0722 0000894 268.1008  91.9732 15.02559354117734
Epoch: 2025-08-29T00:11Z
TLE epoch observation values (Epoch: 2025-08-29T00:11:49.074Z)
Latitude
-0.00001°
Longitude
-150.34531°
Altitude
558.807 km
Speed
7.584 km/s
True Right ascension
12h 40m 17s
True Declination
0° 00' 00"
Sunlit
Object was in daylight at epoch
Visualization orbit readout
Latitude
Unknown
Longitude
Unknown
Altitude
Unknown
Speed
Unknown
Apparent Right ascension
Unknown
Apparent Declination
Unknown
Sunlit
N/A
Visualization observer readout
Local Sidereal Time
17:10:42
Azimuth
Unknown
Elevation
Unknown
Doppler factor
Unknown
Orbital elements
Apogee altitude
561.552 km
Perigee altitude
560.311 km
Semi-major axis
6,939.068 km
Eccentricity
0.00009
Inclination
43.0011°
RAAN
190.0722°
Arg. of periapsis
268.1008°
True anomaly
91.98344°
Mean anomaly
91.9732°
Eccentric anomaly
91.97832°
Mean motion
3.75484 °/min
Orbital period
95.88 mins
BSTAR
0.00023646
Loading maneuver chart data...
Computing Atmospheric mass density...
Loading historical data...
Loading historical data...
Loading historical data...
Loading historical data...
Loading historical data...
Loading historical data...
Loading historical data...

Documentation

Showing up to 5 results
|